Grizzly Air Cargo 5376


PAKN
King Salmon Airport
King Salmon, Alaska, US
PADL
Dillingham Airport
Dillingham, Alaska, US

Activity Log

Date Flight Route Aircraft Duration
No Flights Yet

Route Details

Aircraft Information
Primary: Saab 340AF
Backup: Not Available
Route Data
Distance: 73nm
Sched. Duration: 0h 30m
Avg. Duration: 0h 00m (-30m)
Times Flown: 0
Recm'd Route: AKN V453 DLG
Planned Altitude: 12,000ft
Origin Wx: PAKN 221954Z AUTO 09019G30KT 08/01 A3002 RMK AO2 PK WND 08030/1950 SLP165 T00780006 TSNO RVRNO
Dest. Wx: PADL 221956Z 04014G25KT 10SM BKN075 02/M04 A3009 RMK AO2 SLP192 T00221039
Notes:

Financial History
Total Freight: 0lbs
Average Load: 0lbs/flt
Fuel Used: 0lbs
Avg. Fuel Used: 0lbs/flt
Fuel Expense: $0
Avg. Fuel Expense: $0
Avg. Fuel Cost: $0/lbs
Total Gross Income: $0
Pilot Pay: $0
Total Expenses: $0
Total Revenue: $0
Average Revenue: $0